WZZ2050 EGGW-EPGD

Flight info

Callsign WZZ2050
Flight time 1h 45m
Altitude 35000
Route MATCH Q295 SOMVA DCT MAVAS DCT MALYK DCT LUWIL DCT BINKA DCT LUXAL L730 KOSEX
Aircraft A321/M-SDE3FGHIRWY/LB1

Departure

Time 2026-05-04 19:54
Airport London Luton Airport (EGGW)

Arrival

Time 2026-05-04 21:39
Airport Gdańsk Lech Wałęsa Airport (EPGD)
Time Latitude Longitude Altitude Speed Heading
2026-05-04 19:31 51.87957 -0.37324 509 ft 0 kts 161°
2026-05-04 19:44 51.87967 -0.37329 508 ft 3 kts 162°
2026-05-04 19:44 51.87982 -0.37336 508 ft 3 kts 171°
2026-05-04 19:44 51.88001 -0.37340 508 ft 3 kts 159°
2026-05-04 19:44 51.88008 -0.37344 508 ft 3 kts 118°
2026-05-04 19:45 51.88010 -0.37369 508 ft 2 kts 73°
2026-05-04 19:45 51.88006 -0.37387 508 ft 2 kts 72°
2026-05-04 19:45 51.88004 -0.37398 508 ft 0 kts 72°
2026-05-04 19:47 51.88005 -0.37393 508 ft 2 kts 72°
2026-05-04 19:47 51.88026 -0.37291 508 ft 12 kts 72°
2026-05-04 19:48 51.88036 -0.37160 508 ft 11 kts 127°
2026-05-04 19:48 51.87953 -0.37098 509 ft 19 kts 162°
2026-05-04 19:48 51.87818 -0.37026 514 ft 19 kts 161°
2026-05-04 19:48 51.87706 -0.36967 521 ft 14 kts 161°
2026-05-04 19:49 51.87630 -0.36984 522 ft 14 kts 241°
2026-05-04 19:49 51.87599 -0.37148 522 ft 16 kts 254°
2026-05-04 19:49 51.87576 -0.37322 522 ft 16 kts 274°
2026-05-04 19:49 51.87543 -0.37468 521 ft 16 kts 211°
2026-05-04 19:50 51.87491 -0.37614 523 ft 15 kts 254°
2026-05-04 19:50 51.87462 -0.37781 523 ft 16 kts 253°
2026-05-04 19:50 51.87432 -0.37953 524 ft 14 kts 252°
2026-05-04 19:50 51.87365 -0.38068 523 ft 14 kts 207°
2026-05-04 19:51 51.87361 -0.38072 523 ft 0 kts 206°
2026-05-04 19:52 51.87344 -0.38085 522 ft 9 kts 206°
2026-05-04 19:52 51.87270 -0.38114 523 ft 11 kts 171°
2026-05-04 19:53 51.87255 -0.38036 523 ft 0 kts 76°
2026-05-04 19:53 51.87257 -0.38019 524 ft 7 kts 77°
2026-05-04 19:53 51.87342 -0.37538 521 ft 83 kts 74°
2026-05-04 19:53 51.87562 -0.36291 523 ft 145 kts 73°
2026-05-04 19:54 51.87862 -0.34624 1114 ft 154 kts 71°
2026-05-04 19:54 51.88158 -0.32951 1973 ft 155 kts 73°
2026-05-04 19:54 51.88458 -0.31252 2651 ft 159 kts 71°
2026-05-04 19:54 51.88785 -0.29474 2964 ft 172 kts 71°
2026-05-04 19:55 51.89020 -0.28211 3136 ft 184 kts 72°
2026-05-04 19:55 51.89141 -0.27520 3193 ft 190 kts 73°
2026-05-04 19:55 51.89497 -0.25384 3361 ft 208 kts 74°
2026-05-04 19:55 51.89535 -0.22923 3577 ft 235 kts 105°
2026-05-04 19:56 51.88639 -0.20645 3831 ft 258 kts 142°
2026-05-04 19:56 51.87129 -0.19336 4288 ft 268 kts 157°
2026-05-04 19:56 51.85659 -0.18295 4857 ft 272 kts 158°
2026-05-04 19:56 51.83920 -0.17080 5503 ft 273 kts 158°
2026-05-04 19:57 51.82180 -0.15858 6168 ft 277 kts 158°
2026-05-04 19:57 51.80384 -0.14579 6852 ft 280 kts 158°
2026-05-04 19:57 51.78598 -0.13298 7518 ft 283 kts 158°
2026-05-04 19:57 51.76847 -0.11801 8184 ft 288 kts 141°
2026-05-04 19:58 51.75635 -0.09236 8814 ft 293 kts 111°
2026-05-04 19:58 51.75340 -0.06000 9445 ft 296 kts 84°
2026-05-04 19:58 51.75594 -0.02814 10065 ft 298 kts 82°
2026-05-04 19:58 51.75890 0.00567 10394 ft 314 kts 82°
2026-05-04 19:59 51.76014 0.01975 10427 ft 323 kts 82°
2026-05-04 19:59 51.76336 0.05680 10557 ft 343 kts 82°
2026-05-04 19:59 51.76668 0.09597 10769 ft 359 kts 82°
2026-05-04 19:59 51.77002 0.13629 11281 ft 364 kts 82°
2026-05-04 20:00 51.77332 0.17698 11890 ft 367 kts 82°
2026-05-04 20:00 51.77539 0.20271 12247 ft 369 kts 82°
2026-05-04 20:00 51.77871 0.24393 12890 ft 371 kts 82°
2026-05-04 20:00 51.78202 0.28491 13513 ft 374 kts 82°
2026-05-04 20:01 51.78540 0.32667 14079 ft 377 kts 82°
2026-05-04 20:01 51.78881 0.36883 14623 ft 380 kts 83°
2026-05-04 20:01 51.79225 0.41145 15140 ft 384 kts 83°
2026-05-04 20:01 51.79571 0.45440 15664 ft 387 kts 82°
2026-05-04 20:02 51.80243 0.49665 16181 ft 391 kts 70°
2026-05-04 20:02 51.81208 0.53792 16718 ft 394 kts 69°
2026-05-04 20:02 51.82191 0.57945 17249 ft 397 kts 69°
2026-05-04 20:02 51.83187 0.62128 17766 ft 401 kts 69°
2026-05-04 20:03 51.84192 0.66350 18288 ft 404 kts 69°
2026-05-04 20:03 51.85203 0.70614 18740 ft 407 kts 70°
2026-05-04 20:03 51.86214 0.74907 19214 ft 410 kts 70°
2026-05-04 20:03 51.87229 0.79234 19686 ft 413 kts 70°
2026-05-04 20:04 51.88248 0.83579 20153 ft 416 kts 70°
2026-05-04 20:04 51.89275 0.87978 20602 ft 418 kts 70°
2026-05-04 20:04 51.90309 0.92406 21038 ft 421 kts 70°
2026-05-04 20:04 51.91346 0.96857 21463 ft 424 kts 70°
2026-05-04 20:05 51.92390 1.01343 21885 ft 427 kts 70°
2026-05-04 20:05 51.93439 1.05865 22300 ft 430 kts 70°
2026-05-04 20:05 51.94492 1.10424 22700 ft 433 kts 70°
2026-05-04 20:05 51.95548 1.15003 23099 ft 435 kts 70°
2026-05-04 20:06 51.96607 1.19620 23492 ft 438 kts 70°
2026-05-04 20:06 51.97669 1.24266 23836 ft 441 kts 71°
2026-05-04 20:06 51.98724 1.28877 24168 ft 444 kts 70°
2026-05-04 20:06 51.99804 1.33586 24499 ft 446 kts 70°
2026-05-04 20:07 52.00888 1.38315 24827 ft 448 kts 70°
2026-05-04 20:07 52.01970 1.43064 25158 ft 451 kts 71°
2026-05-04 20:07 52.02828 1.46837 25411 ft 452 kts 71°
2026-05-04 20:07 52.03906 1.51571 25558 ft 445 kts 71°
2026-05-04 20:08 52.04982 1.56331 25704 ft 452 kts 71°
2026-05-04 20:08 52.06067 1.61153 25958 ft 456 kts 71°
2026-05-04 20:08 52.07160 1.66017 26265 ft 459 kts 71°
2026-05-04 20:08 52.08255 1.70897 26573 ft 461 kts 71°
2026-05-04 20:09 52.09356 1.75805 26880 ft 463 kts 71°
2026-05-04 20:09 52.10463 1.80742 27181 ft 465 kts 71°
2026-05-04 20:09 52.11571 1.85702 27469 ft 468 kts 71°
2026-05-04 20:09 52.12682 1.90687 27766 ft 470 kts 71°
2026-05-04 20:10 52.13794 1.95694 28065 ft 472 kts 71°
2026-05-04 20:10 52.14912 2.00732 28378 ft 474 kts 71°
2026-05-04 20:10 52.16032 2.05795 28669 ft 476 kts 71°
2026-05-04 20:10 52.17154 2.10879 28969 ft 478 kts 71°
2026-05-04 20:11 52.18265 2.15913 29322 ft 478 kts 71°
2026-05-04 20:11 52.19387 2.21005 29760 ft 477 kts 71°
2026-05-04 20:11 52.19588 2.21915 29826 ft 477 kts 71°
2026-05-04 20:11 52.20233 2.24826 30039 ft 476 kts 71°
2026-05-04 20:12 52.21348 2.29913 30382 ft 476 kts 71°
2026-05-04 20:12 52.22451 2.34995 30732 ft 475 kts 72°
2026-05-04 20:12 52.23544 2.40062 31082 ft 474 kts 72°
2026-05-04 20:12 52.24636 2.45125 31424 ft 473 kts 72°
2026-05-04 20:13 52.25671 2.49933 31748 ft 472 kts 72°
2026-05-04 20:13 52.26758 2.54984 32080 ft 471 kts 72°
2026-05-04 20:13 52.27849 2.60044 32411 ft 471 kts 72°
2026-05-04 20:13 52.28932 2.65070 32737 ft 470 kts 72°
2026-05-04 20:14 52.30015 2.70111 33057 ft 470 kts 72°
2026-05-04 20:14 52.31093 2.75141 33365 ft 469 kts 72°
2026-05-04 20:14 52.32102 2.79880 33656 ft 469 kts 72°
2026-05-04 20:14 52.33169 2.84910 33962 ft 468 kts 72°
2026-05-04 20:15 52.34219 2.89870 34204 ft 468 kts 72°
2026-05-04 20:15 52.35284 2.94897 34448 ft 468 kts 72°
2026-05-04 20:15 52.36352 2.99936 34657 ft 468 kts 72°
2026-05-04 20:16 52.37847 3.07012 34922 ft 468 kts 72°
2026-05-04 20:16 52.39930 3.17135 35041 ft 469 kts 76°
2026-05-04 20:17 52.41483 3.27493 35036 ft 469 kts 78°
2026-05-04 20:17 52.42060 3.31377 35037 ft 469 kts 78°
2026-05-04 20:18 52.43245 3.39380 35038 ft 468 kts 78°
2026-05-04 20:18 52.44781 3.49708 35034 ft 470 kts 78°
2026-05-04 20:19 52.46316 3.60124 35036 ft 470 kts 78°
2026-05-04 20:19 52.47836 3.70562 35040 ft 471 kts 78°
2026-05-04 20:20 52.49349 3.81020 35039 ft 471 kts 78°
2026-05-04 20:20 52.50852 3.91480 35042 ft 472 kts 78°
2026-05-04 20:21 52.52347 4.01974 35042 ft 472 kts 78°
2026-05-04 20:21 52.54578 4.17729 35043 ft 472 kts 78°
2026-05-04 20:22 52.56057 4.28232 35035 ft 472 kts 78°
2026-05-04 20:22 52.57512 4.38674 35033 ft 472 kts 79°
2026-05-04 20:23 52.58968 4.49204 35034 ft 473 kts 79°
2026-05-04 20:23 52.60420 4.59757 35030 ft 473 kts 79°
2026-05-04 20:24 52.61870 4.70249 35036 ft 474 kts 78°
2026-05-04 20:24 52.63353 4.79641 35031 ft 472 kts 76°
2026-05-04 20:25 52.65097 4.89939 34988 ft 464 kts 76°
2026-05-04 20:25 52.66800 5.00238 34988 ft 468 kts 77°
2026-05-04 20:26 52.68458 5.10657 34992 ft 471 kts 77°
2026-05-04 20:26 52.70105 5.21132 34994 ft 473 kts 77°
2026-05-04 20:27 52.71283 5.28610 34997 ft 474 kts 77°
2026-05-04 20:27 52.72849 5.37737 34972 ft 468 kts 77°
2026-05-04 20:28 52.73967 5.44908 34976 ft 469 kts 78°
2026-05-04 20:28 52.75505 5.55409 34981 ft 472 kts 78°
2026-05-04 20:29 52.77091 5.65970 34987 ft 475 kts 78°
2026-05-04 20:29 52.78725 5.76499 34992 ft 477 kts 78°
2026-05-04 20:30 52.80365 5.87144 34999 ft 478 kts 78°
2026-05-04 20:30 52.81981 5.97823 35002 ft 479 kts 78°
2026-05-04 20:31 52.83589 6.08519 35009 ft 480 kts 78°
2026-05-04 20:31 52.85191 6.19238 35010 ft 480 kts 78°
2026-05-04 20:32 52.86785 6.29976 35021 ft 481 kts 78°
2026-05-04 20:32 52.88375 6.40728 35023 ft 481 kts 78°
2026-05-04 20:33 52.89960 6.51508 35028 ft 482 kts 78°
2026-05-04 20:33 52.91524 6.62286 35024 ft 482 kts 79°
2026-05-04 20:34 52.93083 6.73092 35025 ft 482 kts 79°
2026-05-04 20:34 52.94645 6.83920 35016 ft 483 kts 79°
2026-05-04 20:35 52.95057 6.86790 35003 ft 481 kts 79°
2026-05-04 20:35 52.96585 6.97562 34984 ft 479 kts 79°
2026-05-04 20:36 52.98104 7.08357 34981 ft 482 kts 79°
2026-05-04 20:36 52.99631 7.19203 34988 ft 484 kts 79°
2026-05-04 20:37 53.01147 7.30089 35003 ft 485 kts 79°
2026-05-04 20:37 53.02653 7.41011 35010 ft 485 kts 79°
2026-05-04 20:38 53.04152 7.51966 35014 ft 486 kts 79°
2026-05-04 20:38 53.05647 7.62920 35011 ft 486 kts 79°
2026-05-04 20:39 53.07136 7.73899 35018 ft 487 kts 79°
2026-05-04 20:39 53.08608 7.84904 35015 ft 488 kts 79°
2026-05-04 20:40 53.10060 7.95851 35016 ft 488 kts 80°
2026-05-04 20:40 53.11517 8.06886 35018 ft 489 kts 79°
2026-05-04 20:41 53.12969 8.17950 35015 ft 489 kts 79°
2026-05-04 20:41 53.14415 8.29032 35020 ft 490 kts 80°
2026-05-04 20:42 53.15855 8.40125 35017 ft 490 kts 80°
2026-05-04 20:42 53.17277 8.51251 35016 ft 491 kts 80°
2026-05-04 20:43 53.18685 8.62396 35015 ft 491 kts 80°
2026-05-04 20:43 53.20092 8.73560 35018 ft 492 kts 80°
2026-05-04 20:44 53.21482 8.84656 35018 ft 492 kts 80°
2026-05-04 20:44 53.22875 8.95845 35016 ft 493 kts 80°
2026-05-04 20:45 53.24252 9.07049 35021 ft 493 kts 80°
2026-05-04 20:45 53.25201 9.14808 35022 ft 493 kts 80°
2026-05-04 20:46 53.26340 9.24206 35023 ft 493 kts 80°
2026-05-04 20:46 53.27681 9.35370 35018 ft 493 kts 80°
2026-05-04 20:47 53.29021 9.46620 35014 ft 494 kts 80°
2026-05-04 20:47 53.30352 9.57882 35016 ft 494 kts 80°
2026-05-04 20:48 53.31674 9.69140 35016 ft 494 kts 80°
2026-05-04 20:48 53.32990 9.80415 35015 ft 494 kts 80°
2026-05-04 20:49 53.34297 9.91691 35017 ft 494 kts 80°
2026-05-04 20:49 53.35127 9.98946 35015 ft 494 kts 80°
2026-05-04 20:50 53.36183 10.08426 35005 ft 493 kts 80°
2026-05-04 20:50 53.37462 10.19709 35007 ft 493 kts 80°
2026-05-04 20:51 53.38727 10.30912 35005 ft 493 kts 80°
2026-05-04 20:51 53.39978 10.42213 35006 ft 493 kts 80°
2026-05-04 20:52 53.41215 10.53505 35005 ft 493 kts 80°
2026-05-04 20:52 53.42446 10.64806 35002 ft 493 kts 80°
2026-05-04 20:53 53.43667 10.76102 35005 ft 492 kts 80°
2026-05-04 20:53 53.44504 10.83924 35000 ft 492 kts 80°
2026-05-04 20:54 53.45701 10.95183 34979 ft 490 kts 81°
2026-05-04 20:54 53.46880 11.06452 34976 ft 490 kts 81°
2026-05-04 20:55 53.48052 11.17730 34975 ft 491 kts 81°
2026-05-04 20:55 53.49219 11.28954 34981 ft 491 kts 81°
2026-05-04 20:56 53.50378 11.40266 34987 ft 492 kts 81°
2026-05-04 20:56 53.51518 11.51603 34995 ft 492 kts 81°
2026-05-04 20:57 53.52646 11.62934 34994 ft 492 kts 81°
2026-05-04 20:57 53.53771 11.74260 34996 ft 491 kts 81°
2026-05-04 20:58 53.54885 11.85602 35000 ft 491 kts 81°
2026-05-04 20:58 53.55987 11.96940 35002 ft 491 kts 81°
2026-05-04 20:59 53.57081 12.08287 35007 ft 492 kts 81°
2026-05-04 20:59 53.58157 12.19569 35008 ft 492 kts 81°
2026-05-04 21:00 53.59231 12.30939 35010 ft 491 kts 81°
2026-05-04 21:00 53.60286 12.42302 35011 ft 491 kts 81°
2026-05-04 21:01 53.61325 12.53671 35005 ft 491 kts 81°
2026-05-04 21:01 53.62362 12.65053 35002 ft 491 kts 81°
2026-05-04 21:02 53.63392 12.76437 35004 ft 492 kts 82°
2026-05-04 21:02 53.64410 12.87829 35001 ft 492 kts 82°
2026-05-04 21:03 53.65416 12.99249 35005 ft 492 kts 82°
2026-05-04 21:03 53.66408 13.10677 35014 ft 493 kts 82°
2026-05-04 21:04 53.67395 13.22107 35014 ft 493 kts 82°
2026-05-04 21:04 53.68374 13.33551 35012 ft 493 kts 82°
2026-05-04 21:05 53.69330 13.44916 35012 ft 493 kts 82°
2026-05-04 21:05 53.70277 13.56364 35012 ft 493 kts 82°
2026-05-04 21:06 53.70750 13.62088 35009 ft 493 kts 82°
2026-05-04 21:06 53.71144 13.66851 35000 ft 490 kts 82°
2026-05-04 21:07 53.72069 13.78251 34973 ft 490 kts 82°
2026-05-04 21:07 53.72986 13.89700 34987 ft 493 kts 82°
2026-05-04 21:08 53.73897 14.01177 34985 ft 493 kts 82°
2026-05-04 21:08 53.74859 14.12651 34983 ft 493 kts 79°
2026-05-04 21:09 53.76236 14.23903 34985 ft 493 kts 76°
2026-05-04 21:09 53.77831 14.35199 34991 ft 493 kts 76°
2026-05-04 21:10 53.79341 14.46514 34996 ft 494 kts 77°
2026-05-04 21:10 53.80604 14.56680 34989 ft 491 kts 77°
2026-05-04 21:11 53.81974 14.68007 34979 ft 492 kts 78°
2026-05-04 21:11 53.83353 14.79356 34984 ft 493 kts 77°
2026-05-04 21:12 53.84738 14.90730 34989 ft 493 kts 77°
2026-05-04 21:12 53.86116 15.02122 35000 ft 494 kts 77°
2026-05-04 21:13 53.87486 15.13527 35005 ft 494 kts 78°
2026-05-04 21:13 53.88837 15.24866 35006 ft 494 kts 78°
2026-05-04 21:14 53.90187 15.36294 35004 ft 494 kts 78°
2026-05-04 21:14 53.91521 15.47722 35002 ft 494 kts 78°
2026-05-04 21:15 53.92837 15.59160 35003 ft 494 kts 78°
2026-05-04 21:15 53.94147 15.70609 34987 ft 494 kts 78°
2026-05-04 21:16 53.94801 15.76349 34150 ft 502 kts 78°
2026-05-04 21:16 53.95472 15.82249 33091 ft 511 kts 78°
2026-05-04 21:16 53.96140 15.88167 32248 ft 513 kts 78°
2026-05-04 21:16 53.96811 15.94150 31308 ft 518 kts 79°
2026-05-04 21:17 53.97479 16.00142 30792 ft 513 kts 79°
2026-05-04 21:17 53.98141 16.06088 30163 ft 512 kts 79°
2026-05-04 21:17 53.98802 16.12036 29502 ft 511 kts 79°
2026-05-04 21:17 53.99444 16.17862 28903 ft 507 kts 79°
2026-05-04 21:18 54.00086 16.23727 28291 ft 503 kts 79°
2026-05-04 21:18 54.00722 16.29559 27693 ft 500 kts 79°
2026-05-04 21:18 54.00943 16.31596 27484 ft 498 kts 79°
2026-05-04 21:18 54.01357 16.35399 27107 ft 496 kts 79°
2026-05-04 21:19 54.01702 16.38578 26766 ft 494 kts 79°
2026-05-04 21:19 54.02317 16.44299 26176 ft 490 kts 79°
2026-05-04 21:19 54.02923 16.49964 25689 ft 485 kts 80°
2026-05-04 21:19 54.03522 16.55598 25136 ft 481 kts 80°
2026-05-04 21:20 54.04113 16.61173 24513 ft 479 kts 80°
2026-05-04 21:20 54.04699 16.66710 24136 ft 471 kts 80°
2026-05-04 21:20 54.05274 16.72164 23601 ft 468 kts 80°
2026-05-04 21:20 54.05845 16.77598 23015 ft 464 kts 80°
2026-05-04 21:21 54.06221 16.81177 22538 ft 463 kts 80°
2026-05-04 21:21 54.06630 16.85057 22209 ft 458 kts 80°
2026-05-04 21:21 54.07069 16.89247 21746 ft 456 kts 80°
2026-05-04 21:21 54.07616 16.94527 21279 ft 451 kts 81°
2026-05-04 21:22 54.08152 16.99771 20751 ft 448 kts 81°
2026-05-04 21:22 54.08681 17.04976 20240 ft 444 kts 81°
2026-05-04 21:22 54.09206 17.10135 19783 ft 440 kts 81°
2026-05-04 21:22 54.09396 17.11990 19634 ft 439 kts 81°
2026-05-04 21:23 54.09812 17.16043 19134 ft 439 kts 81°
2026-05-04 21:23 54.10320 17.21051 18588 ft 419 kts 81°
2026-05-04 21:23 54.10800 17.25823 18056 ft 400 kts 81°
2026-05-04 21:23 54.11253 17.30329 17560 ft 381 kts 81°
2026-05-04 21:24 54.11689 17.34677 17090 ft 366 kts 81°
2026-05-04 21:24 54.12118 17.38984 16630 ft 370 kts 81°
2026-05-04 21:24 54.12541 17.43301 16161 ft 368 kts 81°
2026-05-04 21:24 54.12962 17.47606 15704 ft 369 kts 81°
2026-05-04 21:25 54.13383 17.51924 15226 ft 369 kts 81°
2026-05-04 21:25 54.13803 17.56234 14750 ft 368 kts 81°
2026-05-04 21:25 54.14222 17.60540 14281 ft 368 kts 81°
2026-05-04 21:25 54.14638 17.64839 13808 ft 368 kts 82°
2026-05-04 21:26 54.15054 17.69135 13297 ft 367 kts 81°
2026-05-04 21:26 54.15467 17.73421 12825 ft 365 kts 81°
2026-05-04 21:26 54.15877 17.77673 12348 ft 363 kts 81°
2026-05-04 21:26 54.16285 17.81910 11883 ft 361 kts 81°
2026-05-04 21:27 54.16688 17.86132 11416 ft 360 kts 81°
2026-05-04 21:27 54.17087 17.90341 10947 ft 358 kts 81°
2026-05-04 21:27 54.17439 17.94086 10532 ft 357 kts 81°
2026-05-04 21:27 54.17827 17.98228 10315 ft 348 kts 81°
2026-05-04 21:28 54.18203 18.02235 10199 ft 336 kts 81°
2026-05-04 21:28 54.18566 18.06110 10060 ft 326 kts 81°
2026-05-04 21:28 54.18914 18.09854 9818 ft 320 kts 81°
2026-05-04 21:28 54.19188 18.12812 9487 ft 321 kts 81°
2026-05-04 21:29 54.19537 18.16554 9126 ft 319 kts 81°
2026-05-04 21:29 54.19882 18.20280 8805 ft 315 kts 81°
2026-05-04 21:29 54.20224 18.23963 8444 ft 314 kts 81°
2026-05-04 21:29 54.20562 18.27640 8077 ft 312 kts 81°
2026-05-04 21:30 54.20896 18.31298 7735 ft 311 kts 81°
2026-05-04 21:30 54.21226 18.34923 7396 ft 309 kts 81°
2026-05-04 21:30 54.21553 18.38547 7043 ft 307 kts 81°
2026-05-04 21:30 54.21809 18.41380 6795 ft 306 kts 81°
2026-05-04 21:31 54.22450 18.48490 5934 ft 298 kts 81°
2026-05-04 21:31 54.22760 18.51982 5215 ft 296 kts 81°
2026-05-04 21:31 54.23067 18.55448 4517 ft 293 kts 81°
2026-05-04 21:32 54.23364 18.58817 4173 ft 276 kts 81°
2026-05-04 21:32 54.23585 18.61350 4101 ft 270 kts 81°
2026-05-04 21:32 54.23870 18.64342 3964 ft 251 kts 74°
2026-05-04 21:32 54.24544 18.66907 3829 ft 225 kts 51°
2026-05-04 21:33 54.25583 18.68691 3697 ft 208 kts 29°
2026-05-04 21:33 54.26880 18.69968 3589 ft 224 kts 24°
2026-05-04 21:33 54.28262 18.71252 3353 ft 226 kts 23°
2026-05-04 21:33 54.29221 18.72001 3200 ft 222 kts 11°
2026-05-04 21:34 54.30307 18.72048 3078 ft 210 kts 339°
2026-05-04 21:34 54.31531 18.70797 3002 ft 204 kts 310°
2026-05-04 21:34 54.32261 18.68785 2939 ft 193 kts 292°
2026-05-04 21:34 54.32472 18.67946 2828 ft 189 kts 291°
2026-05-04 21:35 54.32860 18.66362 2657 ft 174 kts 291°
2026-05-04 21:35 54.33017 18.65728 2572 ft 168 kts 292°
2026-05-04 21:35 54.33279 18.64665 2500 ft 158 kts 292°
2026-05-04 21:36 54.33451 18.63980 2424 ft 151 kts 292°
2026-05-04 21:36 54.33854 18.62366 2209 ft 145 kts 292°
2026-05-04 21:36 54.34243 18.60795 2016 ft 142 kts 292°
2026-05-04 21:36 54.34628 18.59244 1825 ft 141 kts 292°
2026-05-04 21:37 54.35010 18.57702 1632 ft 140 kts 292°
2026-05-04 21:37 54.35392 18.56164 1444 ft 140 kts 292°
2026-05-04 21:37 54.35775 18.54623 1236 ft 140 kts 292°
2026-05-04 21:37 54.36156 18.53080 1005 ft 140 kts 292°
2026-05-04 21:38 54.36533 18.51554 789 ft 141 kts 291°
2026-05-04 21:38 54.36927 18.49987 629 ft 142 kts 291°
2026-05-04 21:38 54.37237 18.48716 489 ft 137 kts 291°
2026-05-04 21:38 54.37550 18.47449 465 ft 92 kts 293°
2026-05-04 21:39 54.37746 18.46652 457 ft 63 kts 293°
2026-05-04 21:39 54.37867 18.46177 458 ft 22 kts 293°
2026-05-04 21:39 54.37934 18.45962 457 ft 21 kts 306°
2026-05-04 21:39 54.38043 18.45779 455 ft 20 kts 323°
2026-05-04 21:40 54.38111 18.45703 455 ft 8 kts 345°
2026-05-04 21:40 54.38142 18.45755 455 ft 7 kts 95°
2026-05-04 21:40 54.38131 18.45836 456 ft 6 kts 111°
2026-05-04 21:40 54.38115 18.45898 456 ft 6 kts 113°
2026-05-04 21:41 54.38098 18.45968 459 ft 8 kts 112°
2026-05-04 21:41 54.38110 18.46058 459 ft 9 kts 50°
2026-05-04 21:41 54.38168 18.46107 460 ft 10 kts 29°
2026-05-04 21:41 54.38168 18.46206 459 ft 9 kts 112°
2026-05-04 21:42 54.38140 18.46317 459 ft 11 kts 113°
2026-05-04 21:42 54.38121 18.46399 458 ft 1 kts 97°
2026-05-04 21:42 54.38125 18.46404 459 ft 1 kts 59°
2026-05-04 21:42 54.38135 18.46426 459 ft 4 kts 42°
2026-05-04 21:43 54.38160 18.46445 459 ft 1 kts 20°
2026-05-04 21:43 54.38161 18.46445 460 ft 0 kts 21°